Cosmos 1328 Rocket - Orbit

View from above orbital plane
View from above orbital plane
View from above satellite
View from above satellite

Ground track
Ground track

The orbit data is extracted from the following two-line orbital elements,

1 12988U 81117B   13169.14759882  .00000188  00000-0  19818-4 0  7626
2 12988 082.5241 002.0401 0017725 353.2114 146.3143 14.83708902703239
Epoch (UTC): 18 June 2013 03:32:32
Eccentricity: 0.0017725
inclination: 82.5241°
perigee height: 605 km
apogee height: 630 km
right ascension of ascending node: 2.0401°
argument of perigee: 353.2114°
revolutions per day: 14.83708902
mean anomaly at epoch: 146.3143°
orbit number at epoch: 70323

The dashed part of the orbit path shows where the satellite is in the earth's shadow,  

Developed and maintained by Chris Peat, Heavens-Above GmbH. Please read the updated FAQ before sending e-mail. Imprint. DLR